Time,TemperatureF,DewpointF,PressureIn,WindDirection,WindDirectionDegrees,WindSpeedMPH,WindSpeedGustMPH,Humidity,HourlyPrecipIn,Conditions,Clouds,dailyrainin,SoftwareType,DateUTC
2013-06-08 00:00:00,62.1,49.3,29.84,SSE,158,4.0,4.0,63,0.00,,,0.08,WUHU216HW,2013-06-08 05:00:00,
2013-06-08 00:05:00,62.1,49.3,29.83,South,180,1.8,4.0,63,0.00,,,0.00,WUHU216HW,2013-06-08 05:05:00,
2013-06-08 00:10:00,61.9,49.2,29.84,WSW,248,1.3,4.0,63,0.00,,,0.00,WUHU216HW,2013-06-08 05:10:00,
2013-06-08 00:15:00,61.9,49.2,29.83,South,180,2.5,3.1,63,0.00,,,0.00,WUHU216HW,2013-06-08 05:15:00,
2013-06-08 00:20:00,61.7,49.1,29.83,SSE,158,2.0,2.9,63,0.00,,,0.00,WUHU216HW,2013-06-08 05:20:00,
2013-06-08 00:25:00,61.6,48.9,29.83,SSE,158,2.9,3.4,63,0.00,,,0.00,WUHU216HW,2013-06-08 05:25:00,
2013-06-08 00:30:00,61.4,48.7,29.83,SSW,203,1.1,3.4,63,0.00,,,0.00,WUHU216HW,2013-06-08 05:30:00,
2013-06-08 00:35:00,61.4,49.2,29.83,South,180,2.7,2.9,64,0.00,,,0.00,WUHU216HW,2013-06-08 05:35:00,
2013-06-08 00:40:00,61.4,48.7,29.82,West,270,2.7,2.7,63,0.00,,,0.00,WUHU216HW,2013-06-08 05:40:00,
2013-06-08 00:45:00,61.2,48.5,29.82,WSW,248,2.2,3.6,63,0.00,,,0.00,WUHU216HW,2013-06-08 05:45:00,
2013-06-08 00:50:00,61.2,48.5,29.82,SSW,203,1.3,3.6,63,0.00,,,0.00,WUHU216HW,2013-06-08 05:50:00,
2013-06-08 00:55:00,61.2,48.5,29.82,SSE,158,2.0,3.4,63,0.00,,,0.00,WUHU216HW,2013-06-08 05:55:00,
2013-06-08 01:00:00,61.0,48.8,29.82,SSW,203,1.3,3.4,64,0.00,,,0.00,WUHU216HW,2013-06-08 06:00:00,
2013-06-08 01:05:00,61.0,48.8,29.82,SSW,203,1.3,2.5,64,0.00,,,0.00,WUHU216HW,2013-06-08 06:05:00,
2013-06-08 02:00:00,59.6,46.5,29.82,East,90,3.1,3.1,62,0.00,,,0.00,WUHU216HW,2013-06-08 07:00:00,
2013-06-08 02:05:00,59.4,46.4,29.81,SSE,158,1.1,3.1,62,0.00,,,0.00,WUHU216HW,2013-06-08 07:05:00,
2013-06-08 02:10:00,59.2,46.2,29.82,SSE,158,2.5,2.7,62,0.00,,,0.00,WUHU216HW,2013-06-08 07:10:00,
2013-06-08 02:15:00,59.2,45.8,29.82,SSE,158,0.9,2.7,61,0.00,,,0.00,WUHU216HW,2013-06-08 07:15:00,
2013-06-08 02:20:00,59.2,44.9,29.82,South,180,0.9,2.5,59,0.00,,,0.00,WUHU216HW,2013-06-08 07:20:00,
2013-06-08 02:25:00,59.4,45.1,29.82,NNW,338,0.4,2.5,59,0.00,,,0.00,WUHU216HW,2013-06-08 07:25:00,
2013-06-08 02:30:00,59.4,45.5,29.81,SE,135,1.8,2.5,60,0.00,,,0.00,WUHU216HW,2013-06-08 07:30:00,
2013-06-08 02:35:00,59.2,45.4,29.81,SSE,158,0.7,2.2,60,0.00,,,0.00,WUHU216HW,2013-06-08 07:35:00,
2013-06-08 02:40:00,59.0,45.2,29.81,SE,135,1.3,2.5,60,0.00,,,0.00,WUHU216HW,2013-06-08 07:40:00,
2013-06-08 02:45:00,59.0,45.2,29.81,South,180,1.8,2.7,60,0.00,,,0.00,WUHU216HW,2013-06-08 07:45:00,
2013-06-08 02:50:00,59.0,44.7,29.81,SW,225,1.8,2.7,59,0.00,,,0.00,WUHU216HW,2013-06-08 07:50:00,
2013-06-08 02:55:00,59.0,44.3,29.81,SE,135,1.8,2.0,58,0.00,,,0.00,WUHU216HW,2013-06-08 07:55:00,
2013-06-08 03:00:00,58.7,43.9,29.81,SSE,158,2.7,2.7,58,0.00,,,0.00,WUHU216HW,2013-06-08 08:00:00,
2013-06-08 03:05:00,58.7,43.9,29.81,South,180,1.6,2.7,58,0.00,,,0.00,WUHU216HW,2013-06-08 08:05:00,
2013-06-08 03:10:00,58.5,43.7,29.81,South,180,2.2,2.7,58,0.00,,,0.00,WUHU216HW,2013-06-08 08:10:00,
2013-06-08 03:15:00,58.3,42.7,29.81,SSE,158,1.6,2.5,56,0.00,,,0.00,WUHU216HW,2013-06-08 08:15:00,
2013-06-08 03:20:00,58.3,43.1,29.80,SSW,203,1.8,2.5,57,0.00,,,0.00,WUHU216HW,2013-06-08 08:20:00,
2013-06-08 03:25:00,58.1,42.5,29.80,South,180,0.7,2.2,56,0.00,,,0.00,WUHU216HW,2013-06-08 08:25:00,
2013-06-08 03:30:00,58.0,40.5,29.80,SSW,203,2.0,2.7,52,0.00,,,0.00,WUHU216HW,2013-06-08 08:30:00,
2013-06-08 03:35:00,58.0,40.5,29.79,SSW,203,0.9,2.7,52,0.00,,,0.00,WUHU216HW,2013-06-08 08:35:00,
2013-06-08 03:40:00,58.0,40.0,29.79,ESE,113,1.8,3.4,51,0.00,,,0.00,WUHU216HW,2013-06-08 08:40:00,
2013-06-08 03:45:00,57.8,39.9,29.78,SSE,158,1.1,3.4,51,0.00,,,0.00,WUHU216HW,2013-06-08 08:45:00,
2013-06-08 03:50:00,57.8,40.3,29.78,SSE,158,1.8,2.5,52,0.00,,,0.00,WUHU216HW,2013-06-08 08:50:00,
2013-06-08 03:55:00,57.6,40.1,29.78,SSE,158,0.7,2.5,52,0.00,,,0.00,WUHU216HW,2013-06-08 08:55:00,
2013-06-08 04:00:00,57.6,39.7,29.78,South,180,1.8,4.3,51,0.00,,,0.00,WUHU216HW,2013-06-08 09:00:00,
2013-06-08 04:05:00,57.6,39.7,29.79,South,180,0.9,4.3,51,0.00,,,0.00,WUHU216HW,2013-06-08 09:05:00,
2013-06-08 04:10:00,57.6,39.7,29.78,SSE,158,2.5,3.6,51,0.00,,,0.00,WUHU216HW,2013-06-08 09:10:00,
2013-06-08 04:15:00,57.6,40.1,29.78,SSE,158,2.2,3.6,52,0.00,,,0.00,WUHU216HW,2013-06-08 09:15:00,
2013-06-08 04:20:00,57.6,39.7,29.78,South,180,0.9,2.7,51,0.00,,,0.00,WUHU216HW,2013-06-08 09:20:00,
2013-06-08 04:25:00,57.6,39.3,29.79,South,180,1.3,2.9,50,0.00,,,0.00,WUHU216HW,2013-06-08 09:25:00,
2013-06-08 04:30:00,57.8,39.9,29.78,SE,135,1.1,2.9,51,0.00,,,0.00,WUHU216HW,2013-06-08 09:30:00,
2013-06-08 04:35:00,57.8,39.3,29.78,SSE,158,3.1,3.1,50,0.00,,,0.00,WUHU216HW,2013-06-08 09:35:00,
2013-06-08 04:40:00,57.8,39.9,29.78,SSE,158,1.6,3.1,51,0.00,,,0.00,WUHU216HW,2013-06-08 09:40:00,
2013-06-08 04:45:00,57.8,39.3,29.78,SE,135,1.8,2.7,50,0.00,,,0.00,WUHU216HW,2013-06-08 09:45:00,
2013-06-08 04:50:00,57.8,39.9,29.78,SE,135,1.3,2.7,51,0.00,,,0.00,WUHU216HW,2013-06-08 09:50:00,
2013-06-08 04:55:00,57.8,39.3,29.77,SSE,158,2.2,4.0,50,0.00,,,0.00,WUHU216HW,2013-06-08 09:55:00,
2013-06-08 05:00:00,57.8,39.9,29.77,South,180,1.8,4.0,51,0.00,,,0.00,WUHU216HW,2013-06-08 10:00:00,
2013-06-08 05:05:00,57.8,39.3,29.77,South,180,1.3,4.0,50,0.00,,,0.00,WUHU216HW,2013-06-08 10:05:00,
2013-06-08 05:10:00,58.0,39.5,29.77,SSE,158,0.4,4.0,50,0.00,,,0.00,WUHU216HW,2013-06-08 10:10:00,
2013-06-08 05:15:00,58.0,40.0,29.77,SSW,203,1.8,4.0,51,0.00,,,0.00,WUHU216HW,2013-06-08 10:15:00,
2013-06-08 05:20:00,58.0,39.5,29.77,East,90,0.9,4.0,50,0.00,,,0.00,WUHU216HW,2013-06-08 10:20:00,
2013-06-08 05:25:00,58.1,39.7,29.77,SSW,203,3.4,3.4,50,0.00,,,0.00,WUHU216HW,2013-06-08 10:25:00,
2013-06-08 05:30:00,58.1,39.7,29.77,SSE,158,1.3,3.4,50,0.00,,,0.00,WUHU216HW,2013-06-08 10:30:00,
2013-06-08 05:35:00,58.3,39.9,29.78,South,180,2.7,3.6,50,0.00,,,0.00,WUHU216HW,2013-06-08 10:35:00,
2013-06-08 05:40:00,58.3,39.9,29.78,WSW,248,2.7,3.6,50,0.00,,,0.00,WUHU216HW,2013-06-08 10:40:00,
2013-06-08 05:45:00,58.5,40.5,29.78,South,180,1.8,3.4,51,0.00,,,0.00,WUHU216HW,2013-06-08 10:45:00,
2013-06-08 05:50:00,58.5,40.5,29.78,SSE,158,0.9,3.4,51,0.00,,,0.00,WUHU216HW,2013-06-08 10:50:00,
2013-06-08 05:55:00,58.5,40.5,29.78,South,180,1.8,3.4,51,0.00,,,0.00,WUHU216HW,2013-06-08 10:55:00,
2013-06-08 06:00:00,58.5,40.5,29.78,SSW,203,2.7,3.4,51,0.00,,,0.00,WUHU216HW,2013-06-08 11:00:00,
2013-06-08 06:05:00,58.5,40.5,29.77,South,180,1.6,3.4,51,0.00,,,0.00,WUHU216HW,2013-06-08 11:05:00,
2013-06-08 06:10:00,58.5,40.5,29.78,SSW,203,2.5,3.4,51,0.00,,,0.00,WUHU216HW,2013-06-08 11:10:00,
2013-06-08 06:15:00,58.5,40.5,29.78,ESE,113,2.5,4.0,51,0.00,,,0.00,WUHU216HW,2013-06-08 11:15:00,
2013-06-08 06:20:00,58.5,40.5,29.78,SSE,158,2.7,4.0,51,0.00,,,0.00,WUHU216HW,2013-06-08 11:20:00,
2013-06-08 06:25:00,58.7,40.7,29.78,SSE,158,2.0,3.8,51,0.00,,,0.00,WUHU216HW,2013-06-08 11:25:00,
2013-06-08 06:30:00,58.7,40.1,29.77,SW,225,3.1,4.0,50,0.00,,,0.00,WUHU216HW,2013-06-08 11:30:00,
2013-06-08 06:35:00,58.9,40.3,29.77,SW,225,2.2,4.0,50,0.00,,,0.00,WUHU216HW,2013-06-08 11:35:00,
2013-06-08 06:40:00,59.0,41.0,29.77,SSE,158,2.5,4.3,51,0.00,,,0.00,WUHU216HW,2013-06-08 11:40:00,
2013-06-08 06:45:00,59.0,41.0,29.77,ENE,68,2.9,4.3,51,0.00,,,0.00,WUHU216HW,2013-06-08 11:45:00,
2013-06-08 06:50:00,59.2,41.1,29.77,South,180,1.3,4.9,51,0.00,,,0.00,WUHU216HW,2013-06-08 11:50:00,
2013-06-08 06:55:00,59.4,41.3,29.77,SE,135,1.6,4.9,51,0.00,,,0.00,WUHU216HW,2013-06-08 11:55:00,
2013-06-08 07:00:00,59.4,41.3,29.77,South,180,1.1,3.6,51,0.00,,,0.00,WUHU216HW,2013-06-08 12:00:00,
2013-06-08 07:05:00,59.8,41.1,29.77,West,270,2.0,3.8,50,0.00,,,0.00,WUHU216HW,2013-06-08 12:05:00,
2013-06-08 07:10:00,60.1,41.5,29.77,South,180,2.0,4.5,50,0.00,,,0.00,WUHU216HW,2013-06-08 12:10:00,
2013-06-08 07:15:00,60.1,41.9,29.77,SE,135,3.4,4.5,51,0.00,,,0.00,WUHU216HW,2013-06-08 12:15:00,
2013-06-08 07:20:00,60.1,41.9,29.77,SSE,158,2.2,4.0,51,0.00,,,0.00,WUHU216HW,2013-06-08 12:20:00,
2013-06-08 07:25:00,60.1,41.9,29.77,SW,225,2.9,4.0,51,0.00,,,0.00,WUHU216HW,2013-06-08 12:25:00,
2013-06-08 07:30:00,60.3,42.1,29.77,South,180,2.7,3.8,51,0.00,,,0.00,WUHU216HW,2013-06-08 12:30:00,
2013-06-08 07:35:00,60.5,42.3,29.77,SSE,158,1.6,4.7,51,0.00,,,0.00,WUHU216HW,2013-06-08 12:35:00,
2013-06-08 07:40:00,60.7,42.5,29.77,SW,225,1.8,4.7,51,0.00,,,0.00,WUHU216HW,2013-06-08 12:40:00,
2013-06-08 07:45:00,61.0,42.8,29.77,SW,225,2.7,4.7,51,0.00,,,0.00,WUHU216HW,2013-06-08 12:45:00,
2013-06-08 07:50:00,60.8,43.1,29.78,SW,225,2.5,3.8,52,0.00,,,0.00,WUHU216HW,2013-06-08 12:50:00,
2013-06-08 07:55:00,61.0,43.3,29.78,South,180,0.7,3.8,52,0.00,,,0.00,WUHU216HW,2013-06-08 12:55:00,
2013-06-08 08:00:00,61.0,43.3,29.77,South,180,3.1,3.1,52,0.00,,,0.00,WUHU216HW,2013-06-08 13:00:00,
2013-06-08 08:05:00,61.2,42.9,29.77,WSW,248,1.3,3.4,51,0.00,,,0.00,WUHU216HW,2013-06-08 13:05:00,
2013-06-08 08:10:00,61.2,42.9,29.77,SSW,203,0.9,3.4,51,0.00,,,0.00,WUHU216HW,2013-06-08 13:10:00,
2013-06-08 08:15:00,61.2,42.9,29.77,SSW,203,1.8,3.1,51,0.00,,,0.00,WUHU216HW,2013-06-08 13:15:00,
2013-06-08 08:20:00,61.2,42.9,29.78,SSE,158,2.5,4.0,51,0.00,,,0.00,WUHU216HW,2013-06-08 13:20:00,
2013-06-08 08:25:00,61.2,42.9,29.78,South,180,1.1,4.0,51,0.00,,,0.00,WUHU216HW,2013-06-08 13:25:00,
2013-06-08 08:30:00,61.4,43.1,29.77,SSE,158,1.8,3.4,51,0.00,,,0.00,WUHU216HW,2013-06-08 13:30:00,
2013-06-08 08:35:00,61.7,43.4,29.77,SE,135,2.5,3.4,51,0.00,,,0.00,WUHU216HW,2013-06-08 13:35:00,
2013-06-08 08:40:00,62.1,43.7,29.77,South,180,3.1,3.4,51,0.00,,,0.00,WUHU216HW,2013-06-08 13:40:00,
2013-06-08 08:45:00,62.6,44.7,29.77,South,180,1.6,3.4,52,0.00,,,0.00,WUHU216HW,2013-06-08 13:45:00,
2013-06-08 08:50:00,63.0,45.0,29.76,SSW,203,3.1,3.1,52,0.00,,,0.00,WUHU216HW,2013-06-08 13:50:00,
2013-06-08 08:55:00,63.4,45.4,29.76,South,180,1.8,4.0,52,0.00,,,0.00,WUHU216HW,2013-06-08 13:55:00,
2013-06-08 09:00:00,63.5,46.0,29.76,SSE,158,1.8,4.0,53,0.00,,,0.00,WUHU216HW,2013-06-08 14:00:00,
2013-06-08 09:05:00,63.9,46.8,29.76,ESE,113,2.0,3.4,54,0.00,,,0.00,WUHU216HW,2013-06-08 14:05:00,
2013-06-08 09:10:00,64.3,48.2,29.76,SW,225,2.0,3.4,56,0.00,,,0.00,WUHU216HW,2013-06-08 14:10:00,
2013-06-08 09:15:00,64.4,48.8,29.76,SW,225,1.3,3.4,57,0.00,,,0.00,WUHU216HW,2013-06-08 14:15:00,
2013-06-08 09:20:00,64.6,49.4,29.76,SSE,158,0.7,3.4,58,0.00,,,0.00,WUHU216HW,2013-06-08 14:20:00,
2013-06-08 09:25:00,64.8,50.1,29.76,South,180,1.1,4.0,59,0.00,,,0.00,WUHU216HW,2013-06-08 14:25:00,
2013-06-08 09:30:00,65.0,50.3,29.76,SE,135,3.4,4.0,59,0.00,,,0.00,WUHU216HW,2013-06-08 14:30:00,
2013-06-08 09:35:00,65.0,50.3,29.75,South,180,2.0,3.4,59,0.00,,,0.00,WUHU216HW,2013-06-08 14:35:00,
2013-06-08 09:40:00,65.0,50.8,29.75,SSE,158,1.8,3.4,60,0.00,,,0.00,WUHU216HW,2013-06-08 14:40:00,
2013-06-08 09:45:00,65.2,50.9,29.75,East,90,3.4,3.4,60,0.00,,,0.00,WUHU216HW,2013-06-08 14:45:00,
2013-06-08 09:50:00,65.2,50.9,29.76,ENE,68,0.9,3.4,60,0.00,,,0.00,WUHU216HW,2013-06-08 14:50:00,
2013-06-08 09:55:00,65.5,51.3,29.76,SE,135,1.8,3.4,60,0.00,,,0.00,WUHU216HW,2013-06-08 14:55:00,
2013-06-08 10:00:00,65.5,51.3,29.76,SSW,203,1.6,3.4,60,0.00,,,0.00,WUHU216HW,2013-06-08 15:00:00,
2013-06-08 10:05:00,65.3,51.6,29.76,SSE,158,1.1,2.9,61,0.00,,,0.00,WUHU216HW,2013-06-08 15:05:00,
2013-06-08 10:10:00,65.0,51.2,29.78,South,180,2.5,2.9,61,0.01,,,0.01,WUHU216HW,2013-06-08 15:10:00,
2013-06-08 10:11:00,64.8,50.6,29.78,South,180,1.6,1.6,60,0.04,,,0.04,WUHU216HW,2013-06-08 15:11:00,
2013-06-08 10:15:00,64.8,50.6,29.78,South,180,1.6,2.9,60,0.04,,,0.04,WUHU216HW,2013-06-08 15:15:00,
2013-06-08 10:20:00,64.8,50.6,29.78,South,180,1.6,2.5,60,0.04,,,0.04,WUHU216HW,2013-06-08 15:20:00,
2013-06-08 11:00:00,60.7,31.1,29.76,ESE,113,1.1,1.1,33,0.23,,,0.04,WUHU216HW,2013-06-08 16:00:00,
2013-06-08 11:05:00,60.7,31.1,29.76,ESE,113,1.1,1.1,33,0.23,,,0.04,WUHU216HW,2013-06-08 16:05:00,
2013-06-08 12:00:00,61.4,28.7,29.74,SE,135,2.0,2.0,29,0.01,,,0.23,WUHU216HW,2013-06-08 17:00:00,
2013-06-08 12:05:00,61.6,29.8,29.74,SSE,158,2.2,2.2,30,0.00,,,0.25,WUHU216HW,2013-06-08 17:05:00,
2013-06-08 12:10:00,61.6,28.9,29.73,SSW,203,1.8,2.5,29,0.00,,,0.25,WUHU216HW,2013-06-08 17:10:00,
2013-06-08 12:15:00,61.6,28.9,29.73,SSE,158,1.3,4.5,29,0.00,,,0.25,WUHU216HW,2013-06-08 17:15:00,
2013-06-08 12:20:00,61.7,29.0,29.73,SE,135,1.8,4.5,29,0.00,,,0.25,WUHU216HW,2013-06-08 17:20:00,
2013-06-08 12:25:00,61.6,28.9,29.73,SE,135,1.1,3.4,29,0.01,,,0.25,WUHU216HW,2013-06-08 17:25:00,
2013-06-08 12:30:00,61.7,28.1,29.72,South,180,3.1,3.6,28,0.01,,,0.25,WUHU216HW,2013-06-08 17:30:00,
2013-06-08 12:35:00,61.7,28.1,29.72,ESE,113,2.0,4.7,28,0.02,,,0.26,WUHU216HW,2013-06-08 17:35:00,
2013-06-08 12:40:00,61.7,28.1,29.71,East,90,4.9,5.4,28,0.03,,,0.27,WUHU216HW,2013-06-08 17:40:00,
2013-06-08 12:45:00,61.6,26.9,29.72,ESE,113,2.5,5.4,27,0.04,,,0.28,WUHU216HW,2013-06-08 17:45:00,
2013-06-08 12:50:00,61.6,27.9,29.72,East,90,2.2,5.4,28,0.04,,,0.28,WUHU216HW,2013-06-08 17:50:00,
2013-06-08 12:55:00,61.6,26.9,29.72,ESE,113,1.8,3.8,27,0.04,,,0.28,WUHU216HW,2013-06-08 17:55:00,
2013-06-08 13:00:00,61.7,27.1,29.72,ESE,113,1.8,4.7,27,0.04,,,0.28,WUHU216HW,2013-06-08 18:00:00,
2013-06-08 13:05:00,61.9,27.3,29.72,SE,135,1.8,4.7,27,0.04,,,0.28,WUHU216HW,2013-06-08 18:05:00,
2013-06-08 13:10:00,62.3,27.5,29.72,ESE,113,0.9,4.0,27,0.04,,,0.28,WUHU216HW,2013-06-08 18:10:00,
2013-06-08 13:15:00,62.3,27.5,29.72,ESE,113,3.6,4.0,27,0.04,,,0.28,WUHU216HW,2013-06-08 18:15:00,
2013-06-08 13:20:00,62.3,27.5,29.72,ESE,113,1.1,5.4,27,0.03,,,0.28,WUHU216HW,2013-06-08 18:20:00,
2013-06-08 13:25:00,62.5,28.7,29.72,SE,135,1.1,5.4,28,0.03,,,0.28,WUHU216HW,2013-06-08 18:25:00,
2013-06-08 13:30:00,62.5,27.7,29.72,East,90,3.1,4.5,27,0.02,,,0.28,WUHU216HW,2013-06-08 18:30:00,
2013-06-08 13:35:00,62.6,28.8,29.72,ENE,68,4.0,4.5,28,0.02,,,0.28,WUHU216HW,2013-06-08 18:35:00,
2013-06-08 13:40:00,62.6,28.8,29.72,East,90,1.6,4.7,28,0.00,,,0.28,WUHU216HW,2013-06-08 18:40:00,
2013-06-08 13:45:00,62.6,28.8,29.72,ENE,68,2.5,4.9,28,0.00,,,0.28,WUHU216HW,2013-06-08 18:45:00,
2013-06-08 13:50:00,62.8,29.0,29.71,NE,45,2.5,4.9,28,0.00,,,0.28,WUHU216HW,2013-06-08 18:50:00,
2013-06-08 13:55:00,62.8,29.0,29.71,ENE,68,4.3,4.5,28,0.00,,,0.28,WUHU216HW,2013-06-08 18:55:00,
2013-06-08 13:59:00,62.8,29.0,29.71,ENE,68,1.6,1.6,28,0.00,,,0.28,WUHU216HW,2013-06-08 18:59:00,
2013-06-08 14:00:00,62.8,29.0,29.71,ENE,68,1.6,4.3,28,0.00,,,0.28,WUHU216HW,2013-06-08 19:00:00,
2013-06-08 14:05:00,62.8,29.0,29.71,ENE,68,1.6,4.3,28,0.00,,,0.28,WUHU216HW,2013-06-08 19:05:00,
2013-06-08 15:00:00,64.1,32.0,29.68,NE,45,5.6,5.6,30,0.00,,,0.28,WUHU216HW,2013-06-08 20:00:00,
2013-06-08 15:05:00,64.4,32.4,29.68,NE,45,4.7,5.6,30,0.00,,,0.28,WUHU216HW,2013-06-08 20:05:00,
2013-06-08 15:10:00,65.0,32.9,29.68,East,90,6.9,6.9,30,0.00,,,0.28,WUHU216HW,2013-06-08 20:10:00,
2013-06-08 15:15:00,65.5,34.1,29.69,ESE,113,2.5,6.9,31,0.00,,,0.28,WUHU216HW,2013-06-08 20:15:00,
2013-06-08 15:20:00,65.9,35.8,29.69,East,90,5.6,5.6,33,0.00,,,0.28,WUHU216HW,2013-06-08 20:20:00,
2013-06-08 15:25:00,66.1,36.0,29.69,East,90,3.8,6.3,33,0.00,,,0.28,WUHU216HW,2013-06-08 20:25:00,
2013-06-08 15:30:00,66.4,37.1,29.69,East,90,4.0,6.3,34,0.00,,,0.28,WUHU216HW,2013-06-08 20:30:00,
2013-06-08 15:35:00,66.6,37.2,29.69,East,90,4.7,6.0,34,0.00,,,0.28,WUHU216HW,2013-06-08 20:35:00,
2013-06-08 15:40:00,66.2,36.9,29.69,East,90,3.1,6.3,34,0.00,,,0.28,WUHU216HW,2013-06-08 20:40:00,
2013-06-08 15:45:00,66.2,36.2,29.68,East,90,4.9,6.3,33,0.00,,,0.28,WUHU216HW,2013-06-08 20:45:00,
2013-06-08 15:50:00,66.6,37.2,29.68,East,90,3.8,5.6,34,0.00,,,0.28,WUHU216HW,2013-06-08 20:50:00,
2013-06-08 15:55:00,66.6,37.2,29.68,East,90,4.0,4.9,34,0.00,,,0.28,WUHU216HW,2013-06-08 20:55:00,
2013-06-08 16:00:00,67.3,37.8,29.67,East,90,4.7,4.7,34,0.00,,,0.28,WUHU216HW,2013-06-08 21:00:00,
2013-06-08 16:05:00,67.5,38.0,29.67,NNE,23,3.6,5.4,34,0.00,,,0.28,WUHU216HW,2013-06-08 21:05:00,
2013-06-08 16:10:00,67.7,38.9,29.67,ESE,113,2.7,5.4,35,0.00,,,0.28,WUHU216HW,2013-06-08 21:10:00,
2013-06-08 16:15:00,68.2,38.6,29.66,East,90,6.3,6.3,34,0.00,,,0.28,WUHU216HW,2013-06-08 21:15:00,
2013-06-08 16:20:00,68.8,39.8,29.66,ENE,68,4.3,6.3,35,0.00,,,0.28,WUHU216HW,2013-06-08 21:20:00,
2013-06-08 16:25:00,68.8,41.3,29.66,NE,45,3.4,6.3,37,0.00,,,0.28,WUHU216HW,2013-06-08 21:25:00,
2013-06-08 16:30:00,68.2,39.3,29.65,ESE,113,3.8,6.0,35,0.00,,,0.28,WUHU216HW,2013-06-08 21:30:00,
2013-06-08 16:35:00,68.0,37.7,29.65,East,90,2.0,6.3,33,0.00,,,0.28,WUHU216HW,2013-06-08 21:35:00,
2013-06-08 16:40:00,67.9,37.5,29.65,ENE,68,3.4,6.3,33,0.00,,,0.28,WUHU216HW,2013-06-08 21:40:00,
2013-06-08 16:45:00,67.9,37.5,29.64,East,90,2.0,6.9,33,0.00,,,0.28,WUHU216HW,2013-06-08 21:45:00,
2013-06-08 16:50:00,67.9,36.8,29.64,ENE,68,2.2,6.9,32,0.00,,,0.28,WUHU216HW,2013-06-08 21:50:00,
2013-06-08 16:55:00,68.0,37.7,29.64,ESE,113,2.5,6.0,33,0.00,,,0.28,WUHU216HW,2013-06-08 21:55:00,
2013-06-08 17:00:00,68.4,38.7,29.64,ENE,68,1.6,5.1,34,0.00,,,0.28,WUHU216HW,2013-06-08 22:00:00,
2013-06-08 17:05:00,68.4,38.0,29.63,East,90,1.1,5.1,33,0.02,,,0.30,WUHU216HW,2013-06-08 22:05:00,
2013-06-08 17:10:00,67.9,36.1,29.63,ENE,68,3.4,4.9,31,0.02,,,0.30,WUHU216HW,2013-06-08 22:10:00,
2013-06-08 17:15:00,67.3,34.9,29.63,East,90,2.2,4.9,30,0.02,,,0.30,WUHU216HW,2013-06-08 22:15:00,
2013-06-08 17:16:00,67.1,34.7,29.63,ENE,68,4.5,4.9,30,0.02,,,0.30,WUHU216HW,2013-06-08 22:16:00,
2013-06-08 17:20:00,67.1,34.7,29.63,ENE,68,4.5,4.9,30,0.02,,,0.30,WUHU216HW,2013-06-08 22:20:00,
2013-06-08 17:25:00,67.1,34.7,29.63,ENE,68,4.5,4.9,30,0.02,,,0.30,WUHU216HW,2013-06-08 22:25:00,
2013-06-08 18:00:00,67.0,32.6,29.63,South,180,7.6,7.6,28,0.06,,,0.30,WUHU216HW,2013-06-08 23:00:00,
2013-06-08 18:05:00,67.0,32.6,29.63,South,180,7.6,7.6,28,0.06,,,0.30,WUHU216HW,2013-06-08 23:05:00,
2013-06-08 19:00:00,67.0,32.6,29.61,ESE,113,4.7,4.7,28,0.06,,,0.34,WUHU216HW,2013-06-09 00:00:00,
2013-06-08 19:05:00,67.0,32.6,29.61,ESE,113,4.7,4.7,28,0.06,,,0.34,WUHU216HW,2013-06-09 00:05:00,
2013-06-08 20:00:00,63.2,26.4,29.63,SSW,203,0.9,0.9,25,0.56,,,0.41,WUHU216HW,2013-06-09 01:00:00,
2013-06-08 20:05:00,63.0,26.2,29.63,South,180,0.4,1.8,25,0.56,,,0.97,WUHU216HW,2013-06-09 01:05:00,
2013-06-08 20:10:00,63.0,26.2,29.63,SSW,203,1.8,2.5,25,0.56,,,0.97,WUHU216HW,2013-06-09 01:10:00,
2013-06-08 20:15:00,63.0,26.2,29.63,SSW,203,0.4,2.5,25,0.56,,,0.97,WUHU216HW,2013-06-09 01:15:00,
2013-06-08 20:20:00,63.0,26.2,29.63,South,180,0.0,1.8,25,0.37,,,0.97,WUHU216HW,2013-06-09 01:20:00,
2013-06-08 20:25:00,63.2,26.4,29.64,South,180,0.7,1.3,25,0.24,,,0.97,WUHU216HW,2013-06-09 01:25:00,
2013-06-08 20:30:00,63.0,26.2,29.64,South,180,0.2,1.8,25,0.17,,,0.97,WUHU216HW,2013-06-09 01:30:00,
2013-06-08 20:35:00,63.0,26.2,29.64,South,180,1.1,1.8,25,0.10,,,0.97,WUHU216HW,2013-06-09 01:35:00,
2013-06-08 20:40:00,62.8,26.1,29.64,SW,225,0.2,1.8,25,0.04,,,0.97,WUHU216HW,2013-06-09 01:40:00,
2013-06-08 20:45:00,62.8,26.1,29.63,SSE,158,0.7,1.8,25,0.02,,,0.97,WUHU216HW,2013-06-09 01:45:00,
2013-06-08 20:50:00,62.8,26.1,29.64,SSE,158,0.4,1.3,25,0.02,,,0.97,WUHU216HW,2013-06-09 01:50:00,
2013-06-08 20:55:00,62.8,26.1,29.63,SSE,158,0.9,2.0,25,0.01,,,0.97,WUHU216HW,2013-06-09 01:55:00,
2013-06-08 21:00:00,63.0,27.2,29.63,SSW,203,0.4,2.0,26,0.00,,,0.97,WUHU216HW,2013-06-09 02:00:00,
2013-06-08 21:05:00,63.2,26.4,29.63,SSW,203,0.0,1.6,25,0.00,,,0.97,WUHU216HW,2013-06-09 02:05:00,
2013-06-08 21:10:00,63.0,26.2,29.63,SSW,203,0.9,1.3,25,0.00,,,0.97,WUHU216HW,2013-06-09 02:10:00,
2013-06-08 21:15:00,63.0,26.2,29.63,SSE,158,0.4,2.0,25,0.01,,,0.97,WUHU216HW,2013-06-09 02:15:00,
2013-06-08 21:20:00,63.0,26.2,29.64,South,180,0.2,2.0,25,0.01,,,0.97,WUHU216HW,2013-06-09 02:20:00,
2013-06-08 21:25:00,63.0,26.2,29.64,South,180,0.0,1.8,25,0.01,,,0.97,WUHU216HW,2013-06-09 02:25:00,
2013-06-08 21:30:00,63.0,26.2,29.64,South,180,0.0,1.1,25,0.01,,,0.97,WUHU216HW,2013-06-09 02:30:00,
2013-06-08 21:35:00,63.4,27.6,29.64,South,180,0.4,1.1,26,0.01,,,0.97,WUHU216HW,2013-06-09 02:35:00,
2013-06-08 21:40:00,63.2,27.4,29.64,South,180,0.4,1.6,26,0.01,,,0.97,WUHU216HW,2013-06-09 02:40:00,
2013-06-08 21:45:00,63.2,27.4,29.65,SSW,203,0.4,1.6,26,0.01,,,0.97,WUHU216HW,2013-06-09 02:45:00,
2013-06-08 21:50:00,63.2,27.4,29.65,SSW,203,0.9,1.1,26,0.01,,,0.97,WUHU216HW,2013-06-09 02:50:00,
2013-06-08 21:55:00,63.0,27.2,29.65,SSW,203,0.9,1.8,26,0.01,,,0.97,WUHU216HW,2013-06-09 02:55:00,
2013-06-08 22:00:00,63.0,27.2,29.65,SSE,158,0.4,1.8,26,0.01,,,0.97,WUHU216HW,2013-06-09 03:00:00,
2013-06-08 22:05:00,63.0,27.2,29.65,SSW,203,1.1,1.6,26,0.01,,,0.97,WUHU216HW,2013-06-09 03:05:00,
2013-06-08 22:10:00,63.0,27.2,29.65,SW,225,0.7,1.3,26,0.01,,,0.97,WUHU216HW,2013-06-09 03:10:00,
2013-06-08 22:15:00,63.0,27.2,29.66,SSW,203,1.1,1.6,26,0.00,,,0.97,WUHU216HW,2013-06-09 03:15:00,
2013-06-08 22:20:00,63.0,26.2,29.66,SSW,203,0.0,1.6,25,0.00,,,0.97,WUHU216HW,2013-06-09 03:20:00,
2013-06-08 22:25:00,63.0,27.2,29.66,SSW,203,0.0,1.1,26,0.00,,,0.97,WUHU216HW,2013-06-09 03:25:00,
2013-06-08 22:30:00,62.8,26.1,29.66,SSW,203,0.0,1.1,25,0.00,,,0.97,WUHU216HW,2013-06-09 03:30:00,
2013-06-08 22:35:00,62.6,25.9,29.66,SSW,203,0.0,0.9,25,0.00,,,0.97,WUHU216HW,2013-06-09 03:35:00,
2013-06-08 22:40:00,62.6,25.9,29.66,SSW,203,0.4,0.4,25,0.00,,,0.97,WUHU216HW,2013-06-09 03:40:00,
2013-06-08 22:45:00,62.5,25.7,29.66,SSW,203,0.4,1.1,25,0.00,,,0.97,WUHU216HW,2013-06-09 03:45:00,
2013-06-08 22:50:00,62.3,25.7,29.66,SSW,203,0.0,1.1,25,0.00,,,0.97,WUHU216HW,2013-06-09 03:50:00,
2013-06-08 22:55:00,62.3,25.7,29.66,SSW,203,0.0,0.7,25,0.00,,,0.97,WUHU216HW,2013-06-09 03:55:00,
2013-06-08 23:00:00,62.3,25.7,29.66,SSW,203,0.7,0.7,25,0.00,,,0.97,WUHU216HW,2013-06-09 04:00:00,
2013-06-08 23:01:00,62.3,25.7,29.66,SSW,203,1.1,1.8,25,0.00,,,0.97,WUHU216HW,2013-06-09 04:01:00,
2013-06-08 23:02:00,62.3,25.7,29.66,SSW,203,0.0,1.8,25,0.00,,,0.97,WUHU216HW,2013-06-09 04:02:00,
2013-06-08 23:07:00,62.3,25.7,29.66,SSW,203,0.0,1.8,25,0.00,,,0.97,WUHU216HW,2013-06-09 04:07:00,
2013-06-08 23:12:00,62.3,25.7,29.66,SSW,203,0.0,0.0,25,0.00,,,0.97,WUHU216HW,2013-06-09 04:12:00,